カタログに戻る

DELTA 2 R/B(2)

運用中HEO
NORAD 29244·ROCKET BODY·🇺🇸 United States

打ち上げ Jun 21, 2006 から Cape Canaveral Space Force Station

Loading…

次のパス (今後24時間)

TLE

最新Source: Space-Track

元期: Sep 14, 2026, 08:43 UTC

1 29244U 06024E   26257.36344217  .00008652  00000-0  13917-2 0  9999
2 29244  26.0824 248.6597 5566820 349.3929   2.4730  4.71336069 39914

AllMySatでDELTA 2 R/B(2)をリアルタイム追跡

Download on the App Store